Location: Barenton-Bugny
(49.6333°N, 3.6514°E)
Time: 09:23:32
(UTC+00:00)

Daily predictions for brighter satellites

Satellite Brightness Start Highest point End
(mag) Time Altitude Azimuth Time Altitude Azimuth Time Altitude Azimuth
SL-08 RB Rocket 4.2 17:20:13 10° S 17:24:51 71° WSW 17:29:32 10° NNW
SL-16 R/B 2.5 17:20:17 10° SW 17:25:58 74° WNW 17:31:41 10° NNE
CZ-4C R/B 4.2 17:24:58 10° NE 17:28:06 25° E 17:31:05 10° SSE
Cosmos 1980 Rocket 4.1 17:26:51 10° W 17:31:33 26° NW 17:36:17 10° NNE
COSMOS 2428 3.9 17:28:43 10° SSE 17:32:48 21° E 17:36:53 10° NE
Lacrosse 5 2.1 17:28:24 10° WSW 17:33:30 72° NNW 17:38:38 10° NE
Cosmos 1633 2.5 17:32:43 10° S 17:35:57 51° E 17:39:13 10° NNE
SL-4 R/B 1.6 17:35:07 10° WNW 17:38:36 88° SSW 17:42:16 10° ESE
Cosmos 676 Rocket 4.2 17:34:32 10° SSW 17:39:49 79° WNW 17:45:06 10° NNE
ADEOS 4.3 17:40:21 10° S 17:45:30 61° WSW 17:50:41 10° NNW
IRIDIUM 103 4.4 17:40:47 10° N 17:45:54 53° E 17:51:00 10° SSE
Lacrosse 4 Rocket 3.6 17:49:13 10° N 17:50:47 12° NNE 17:52:20 10° NE
CZ-4 R/B 4.4 17:47:05 10° SSE 17:51:11 75° ENE 17:55:19 10° N
Cosmos 1461 3.7 17:48:28 10° WSW 17:52:43 54° NW 17:57:11 10° NNE
Okean O Rocket 2.6 17:50:25 10° ESE 17:54:05 26° ENE 17:57:47 10° N
Cosmos 2322 4.2 17:49:11 10° S 17:54:26 39° ESE 17:59:42 10° NE
Cosmos 1825 2.4 17:51:42 10° SSW 17:55:22 69° W 17:59:04 10° N
SKYMED 2 3.5 17:51:25 10° NNE 17:55:46 68° ESE 18:00:05 10° S
CZ-4 R/B 2.3 17:53:27 10° ESE 17:56:53 27° ENE 18:00:17 10° N
Cosmos 1745 Rocket 4.0 17:51:21 10° N 17:57:29 56° ENE 18:03:31 10° SSE
YAOGAN 1 2.8 17:54:47 10° SE 17:58:53 45° ENE 18:03:01 10° N
RESURS DK-1 4.2 17:56:23 10° NW 18:00:08 34° WSW 18:03:51 10° S
Cosmos 2058 Rocket 3.0 17:58:24 10° N 18:02:51 86° E 18:07:18 10° S
Cosmos 1892 4.4 17:59:44 10° SW 18:03:12 35° WNW 18:06:43 10° N
Okean 1-7 Rocket 4.2 17:59:27 10° SSE 18:03:26 33° E 18:07:28 10° NNE
IRIDIUM 106 4.3 17:59:00 10° N 18:04:15 75° E 18:09:28 10° S
Cosmos 1844 Rocket 4.3 17:59:39 10° NW 18:04:46 38° WSW 18:09:52 10° S
Okean-O 4.3 18:05:35 15° NE 18:05:35 15° NE 18:07:51 10° NNE
Gblst 52 Del rocket 4.2 18:02:53 10° W 18:08:33 74° N 18:12:32 19° ENE
Cosmos 2058 4.4 18:05:44 10° SE 18:07:41 17° ESE 18:07:41 17° ESE
PAYLOAD B 4.1 18:03:52 10° SSE 18:09:21 74° ENE 18:14:51 10° NNW
Cosmos-2242 3.7 18:07:11 10° N 18:10:57 30° ENE 18:14:42 10° SE
Cosmos 1340 3.0 18:07:39 10° NNW 18:11:19 67° W 18:14:56 10° S
Cosmos 44 Rocket 3.1 18:09:27 10° SSW 18:14:08 80° SE 18:18:21 13° NE
Cosmos 1869 4.0 18:11:21 10° NNW 18:15:13 58° W 18:19:06 10° S
Cosmos 1709 Rocket 4.1 18:09:18 10° N 18:15:15 49° ENE 18:21:09 10° SSE
USA 215 3.6 18:09:34 10° SE 18:16:04 66° SW 18:22:35 10° WNW
SOZ 4.3 18:15:20 10° WNW 18:17:59 51° N 18:18:22 43° NE
PSLV R/B 3.5 18:17:44 10° SSE 18:21:26 81° ENE 18:25:14 10° NNW
Cosmos 1553 Rocket 4.1 18:16:16 10° SSW 18:22:23 82° W 18:28:39 10° N
Feng Yun 1-1 Rocket 4.4 18:18:15 10° SE 18:23:29 48° ENE 18:28:40 10° N
Cosmos 1417 Rocket 4.4 18:20:05 10° S 18:26:18 81° E 18:32:30 10° N
CZ-4B R/B 3.1 18:24:41 10° SSE 18:30:03 77° ENE 18:35:35 10° NNW
Cosmos 2219 Rocket 2.1 18:26:55 10° SSW 18:32:31 86° ESE 18:38:10 10° NNE
ATLAS 5 CENTAUR R/B 3.5 18:30:00 10° NNW 18:33:21 19° NNE 18:34:47 17° NE
Landsat 7 4.4 18:35:08 31° E 18:35:55 33° ENE 18:40:07 10° N
BlueWalker 3 1.9 18:32:07 10° WNW 18:36:01 82° SSW 18:37:32 36° ESE
Cosmos 2360 Rocket 3.1 18:30:36 10° SW 18:36:03 48° NW 18:41:33 10° NNE
Cosmos 1602 Rocket 3.6 18:33:40 10° SSE 18:37:49 48° E 18:41:59 10° NNE
Cosmos 1814 Rocket 4.2 18:33:49 10° NNW 18:39:11 76° WSW 18:44:31 10° SSE
Cosmos 1606 2.8 18:36:20 10° NNW 18:40:10 74° W 18:43:58 10° S
COSMO-SKYMED 1 3.8 18:39:33 10° N 18:43:40 42° WNW 18:47:45 10° SW
Lacrosse 5 rocket 4.2 18:43:15 10° WSW 18:44:33 12° SW 18:45:50 10° SW
SJ-6B 3.1 18:44:58 43° ENE 18:44:58 43° ENE 18:48:42 10° N
ATLAS CENTAUR R/B 3.9 18:44:23 10° NW 18:46:19 12° NNW 18:48:13 10° NNE
Cosmos 2237 Rocket 3.0 18:42:31 10° SSE 18:46:55 30° ESE 18:46:55 30° ESE
USA 186 4.3 18:51:09 13° N 18:51:09 13° N 18:51:37 10° N
IGS 5A 3.4 18:46:58 29° SE 18:48:54 60° ENE 18:52:58 10° N
Cosmos 2278 Rocket 2.1 18:44:41 10° NNW 18:50:23 71° ENE 18:53:55 24° SE
Cosmos 2322 Rocket 3.9 18:47:22 10° WSW 18:52:15 29° NW 18:57:09 10° NNE
Cosmos 1812 Rocket 3.4 18:47:59 10° N 18:52:29 81° ENE 18:56:55 10° SSE
Cosmos 1758 Rocket 3.5 18:48:23 10° S 18:52:39 59° E 18:56:51 11° NNE
NOSS 0 Rocket 4.1 18:47:42 10° S 18:53:37 48° ESE 18:56:15 31° ENE
Cosmos 1356 Rocket 3.4 18:50:20 10° S 18:53:48 54° SE 18:53:48 54° SE
Cosmos 1980 4.1 18:53:14 10° S 18:58:05 38° ESE 18:58:05 38° ESE
BREEZE-M DEB (TANK) 4.0 18:55:46 10° W 18:59:32 50° S 19:04:17 24° SE
S3M 4.3 18:54:09 10° SSW 19:00:31 72° WNW 19:06:54 10° N
CSL-04 Debris 4.1 18:58:39 26° SE 19:01:40 63° ENE 19:07:00 10° N
Cosmos 2369 Rocket 3.8 18:58:13 10° N 19:01:37 18° NNE 19:01:37 18° NNE
Cosmos 2333 Rocket 3.2 18:56:37 10° SW 19:02:04 46° NW 19:07:34 10° NNE
CSL-04 Rocket 3.6 19:01:24 37° SE 19:03:21 58° ENE 19:08:41 10° N
IRS-1C Rocket 4.4 19:07:02 44° ENE 19:07:02 44° ENE 19:11:46 10° N
Cosmos 1943 Rocket 2.6 19:01:25 10° NNW 19:06:48 41° NE 19:06:56 41° NE
Cosmos 1626 Rocket 4.1 19:02:43 10° SSW 19:06:58 56° WNW 19:11:16 10° N
SL-16 R/B 4.5 19:07:02 10° W 19:11:05 19° NW 19:15:09 10° N
Cosmos 2285 Rocket 4.4 19:06:22 10° NNW 19:12:21 41° NE 19:12:33 41° ENE
Resurs 01 Rocket 3.7 19:17:08 16° N 19:17:08 16° N 19:18:15 10° N
Cosmos 968 Rocket 3.6 19:11:12 10° SSW 19:16:25 75° WNW 19:20:14 19° NNE
COSMOS 2428 2.8 19:10:46 10° SW 19:16:26 74° WNW 19:20:22 21° NNE
Lacrosse 5 2.8 19:12:21 10° WNW 19:17:07 37° N 19:18:14 33° NNE
SL-4 R/B 3.5 19:14:36 10° W 19:17:37 25° SW 19:18:04 24° SSW
Cosmos 2208 Rocket 4.1 19:13:15 10° NNW 19:18:26 72° WSW 19:21:18 27° S
Meteor 2-2 Rocket 4.2 19:20:45 10° NNW 19:26:27 83° W 19:30:32 20° S
Okean O Rocket 2.9 19:26:05 10° S 19:30:14 41° W 19:34:27 10° NNW
Lacrosse 4 Rocket 3.0 19:26:24 10° NNW 19:28:37 26° N 19:28:37 26° N
Cosmos 2315 Rocket 4.3 19:24:30 10° SSW 19:30:50 70° WNW 19:37:15 10° N
Cosmos 836 Rocket 4.3 19:25:34 10° NNW 19:30:51 86° ENE 19:31:03 83° SE
CZ-4 R/B 3.1 19:28:00 10° SSW 19:31:41 33° W 19:35:20 10° NNW
Okean-O 3.8 19:43:07 35° NNW 19:43:07 35° NNW 19:45:43 10° NNW
Cosmos 2058 4.2 19:41:04 10° SSW 19:43:57 36° WSW 19:43:57 36° WSW
Gblst 52 Del rocket 4.4 19:54:55 10° WNW 19:59:29 63° WNW 19:59:29 63° WNW
Cosmos 2219 Rocket 4.2 20:12:50 10° W 20:17:12 23° NW 20:20:24 15° N
ATLAS 5 CENTAUR R/B 3.7 20:13:58 10° NW 20:16:09 26° NNW 20:16:09 26° NNW
Cosmos 2074 Rocket 4.4 20:14:38 10° NNW 20:20:48 58° W 20:21:08 57° WSW
Cosmos 2184 Rocket 4.4 20:17:18 10° NNW 20:23:21 57° W 20:23:21 57° W
Cosmos 2237 Rocket 3.6 20:25:40 10° SW 20:28:51 32° WSW 20:28:51 32° WSW
Cosmos 2278 Rocket 4.3 20:29:41 10° NW 20:33:54 22° W 20:35:51 18° SW
Cosmos 2369 Rocket 4.2 20:41:31 10° NNW 20:43:24 22° NNW 20:43:24 22° NNW
Cosmos 1943 Rocket 3.9 20:45:17 10° NW 20:48:30 30° WNW 20:48:30 30° WNW
Lacrosse 5 4.4 20:56:07 10° WNW 20:57:26 17° NW 20:57:26 17° NW
